Dewpoint
72 73 72 67 48 48 47 47 50 49 51 56 55 53 56 59 56 54 69 68 70 69 71 74 77 77 76 77 77 77 77 77 77 78 78 77 77 76 76 75 75 75 74 74 74 74 74 74 74
71 71 67 56 46 41 45 49 49 51 53 53 55 56 54 59 65 67 67 71 69 69 70 71 78 77 77 77 77 77 77 76 76 77 77 76 76 76 75 75 75 74 74 74 74 74 74 74 74
71 65 56 50 50 42 44 49 50 52 51 50 55 57 59 62 66 66 70 72 71 71 71 73 78 78 76 76 77 77 77 77 76 76 76 76 76 76 75 75 74 74 74 74 74 74 74 74 74
64 55 53 49 45 48 49 49 50 47 51 50 54 56 62 67 64 67 71 72 72 72 71 77 78 77 76 76 77 77 77 77 77 76 76 76 76 75 75 75 74 74 74 74 74 74 74 73 73
57 53 47 49 45 49 51 52 50 48 51 50 52 57 62 69 69 71 72 72 72 72 72 75 78 78 77 77 77 77 77 76 75 75 76 75 75 75 75 75 74 74 74 74 73 74 74 74 74
51 50 45 43 42 47 49 52 52 50 52 52 57 59 63 70 70 70 72 72 71 72 72 74 77 78 78 77 76 76 76 75 75 75 75 75 75 75 75 74 75 74 74 74 74 74 73 74 74
49 49 47 45 44 44 48 54 51 51 51 52 59 57 64 69 71 72 72 72 72 72 73 74 75 76 77 77 76 76 76 76 75 75 75 75 75 75 74 74 74 74 74 74 74 74 74 74 74
51 49 48 48 43 37 48 52 53 50 52 55 59 58 59 68 71 72 73 73 73 73 73 74 75 75 76 76 77 77 77 76 75 75 75 75 75 74 73 75 74 74 73 74 73 74 74 75 75
49 44 46 45 44 36 50 49 54 53 52 54 56 59 63 70 71 71 71 72 73 73 74 74 74 76 77 77 77 77 76 75 75 75 75 75 72 72 71 74 74 74 74 74 74 73 74 75 75
36 40 43 45 47 37 42 48 52 51 52 54 57 65 68 70 70 69 69 68 70 72 74 74 75 75 76 74 77 77 75 73 74 74 75 73 73 74 71 73 74 73 73 74 73 73 73 73 71
37 35 40 37 45 45 40 47 51 50 52 53 56 66 68 68 69 68 67 68 69 71 72 74 74 75 74 75 75 77 74 75 75 76 77 77 74 74 71 73 72 73 74 71 72 72 71 72 74
27 30 36 27 35 42 43 48 50 51 48 52 56 66 68 68 68 68 69 70 70 71 71 72 74 75 76 76 74 75 77 77 76 77 76 76 76 74 72 71 73 74 72 73 74 74 73 73 74
23 23 25 27 31 33 43 45 45 49 51 52 60 66 67 68 69 70 69 70 70 70 70 72 74 75 76 76 76 75 75 74 77 77 76 72 70 73 72 72 73 73 73 72 75 74 74 74 73
25 29 30 34 36 40 40 42 45 50 56 61 64 66 67 68 69 70 70 70 70 69 70 72 74 75 75 76 75 74 74 77 73 75 76 75 75 72 75 72 72 73 73 73 74 73 73 73 74
33 27 32 38 40 39 41 42 45 55 60 62 64 66 67 69 70 70 71 71 71 71 71 72 73 74 75 75 74 73 72 72 71 72 75 74 74 74 75 75 71 72 73 75 75 74 74 72 72
28 30 25 34 40 40 36 34 46 60 60 62 64 65 66 67 68 68 69 71 72 73 73 73 72 74 75 75 75 74 73 73 72 71 71 73 74 74 73 71 70 69 71 70 70 74 71 73 73
28 21 29 34 40 38 36 35 51 61 61 61 63 64 65 63 64 66 67 69 72 73 74 74 74 74 75 75 75 75 75 73 73 72 72 74 74 73 72 70 70 72 68 69 70 71 71 70 73
18 26 30 34 34 33 33 37 48 60 60 60 62 64 64 62 61 63 67 68 70 71 73 73 74 75 74 74 75 74 73 72 72 72 71 72 72 73 73 72 72 71 69 68 69 70 71 70 71
30 27 27 30 30 32 36 40 48 56 60 60 61 63 62 61 62 62 64 68 68 68 69 71 73 74 74 73 72 72 71 73 72 73 72 72 72 71 72 70 71 71 69 69 72 72 71 69 70
27 26 27 28 34 37 37 39 46 53 57 60 60 61 60 59 60 61 65 66 66 66 69 71 72 73 73 73 74 73 73 72 72 72 72 71 71 72 71 71 70 70 68 69 70 71 68 68 69
26 26 26 25 26 39 41 34 41 49 55 56 59 58 57 57 59 62 60 63 63 65 68 69 69 70 72 73 72 72 72 71 70 69 68 70 69 70 72 70 70 69 69 69 72 72 71 66 71
27 27 26 25 24 18 31 18 36 37 44 50 54 57 57 58 61 62 60 61 63 64 66 66 69 71 73 73 72 71 70 68 68 66 67 68 69 69 70 71 71 71 70 68 68 71 72 70 67
28 26 26 24 24 26 26 20 29 39 41 42 51 54 55 56 59 61 61 61 62 65 65 66 70 71 72 71 71 68 67 66 66 67 69 70 70 69 69 70 70 70 70 69 68 68 70 72 66
28 25 25 28 25 19 25 22 21 31 41 44 47 52 55 56 57 59 62 63 62 61 63 65 68 71 72 70 69 69 68 68 67 67 67 67 67 68 70 70 70 70 70 70 70 68 70 72 71
27 27 25 18 19 16 30 28 31 37 43 47 48 49 54 56 57 59 63 64 62 61 61 63 68 70 70 68 68 68 69 69 68 68 67 68 67 67 69 70 70 69 70 70 72 72 71 72 68
27 28 23 18 16 18 30 27 28 47 54 57 54 52 53 56 59 61 64 63 63 62 62 62 68 70 70 68 68 69 69 67 68 68 68 68 68 69 70 70 70 69 69 69 70 69 71 71 72
25 25 23 26 26 20 22 27 37 50 52 56 54 54 55 57 62 63 62 63 64 63 64 64 68 70 68 68 68 68 67 68 68 69 69 68 69 68 69 69 69 69 70 70 70 70 70 70 71
27 26 23 24 26 22 23 29 27 43 49 54 57 56 57 60 63 65 64 63 64 64 67 69 69 68 68 68 66 66 67 68 69 68 68 68 69 68 67 68 69 69 70 70 70 71 70 70 70
24 24 25 25 25 20 21 23 41 45 47 52 57 57 57 56 61 66 67 66 67 67 69 68 67 68 67 68 66 66 67 67 68 67 68 68 68 67 67 67 67 68 69 70 70 70 69 69 69
26 26 31 24 30 28 26 21 32 45 48 55 57 57 55 56 59 63 67 68 68 67 66 67 66 66 67 68 66 66 66 68 67 67 67 67 66 65 66 66 66 67 67 67 67 67 67 67 66
Lifted_Index
-5 -5 -4 -3 -1 -0 0 1 2 2 1 0 -0 -0 -1 -2 -3 -3 -3 -4 -4 -4 -4 -6 -7 -7 -7 -7 -8 -8 -8 -8 -8 -8 -8 -7 -7 -7 -6 -6 -6 -6 -5 -5 -5 -5 -5 -5 -4
-5 -4 -4 -2 -1 0 0 1 1 1 1 1 -0 -1 -2 -3 -3 -3 -4 -4 -4 -4 -4 -6 -7 -7 -7 -7 -8 -8 -8 -8 -7 -8 -8 -7 -7 -7 -7 -6 -6 -6 -5 -5 -5 -5 -5 -5 -5
-4 -3 -2 -2 -1 -0 -0 -0 0 1 1 0 -1 -2 -3 -4 -4 -4 -4 -4 -4 -4 -5 -6 -7 -7 -7 -7 -7 -8 -8 -7 -7 -7 -7 -8 -8 -7 -7 -6 -6 -6 -6 -6 -6 -6 -5 -5 -5
-2 -2 -2 -2 -1 -1 -1 -0 0 1 1 0 -1 -2 -4 -4 -4 -4 -4 -5 -5 -5 -5 -6 -7 -7 -7 -7 -7 -7 -7 -7 -7 -7 -7 -8 -8 -7 -7 -7 -6 -6 -6 -6 -6 -6 -5 -5 -5
-1 -1 -1 -1 -1 -1 -1 -0 0 1 1 0 -1 -2 -4 -5 -4 -5 -5 -5 -5 -5 -5 -6 -7 -7 -7 -7 -7 -7 -7 -7 -7 -7 -7 -7 -8 -8 -7 -7 -7 -6 -6 -6 -6 -6 -5 -5 -5
-0 -1 -1 -1 -1 -1 -1 -0 0 1 1 -0 -1 -3 -4 -5 -5 -5 -5 -5 -5 -5 -6 -6 -7 -7 -7 -7 -7 -7 -7 -7 -7 -7 -7 -7 -8 -8 -7 -7 -7 -7 -7 -6 -6 -6 -5 -5 -5
-0 -0 -0 -1 -0 -0 -0 -1 -0 0 0 -0 -2 -3 -4 -6 -6 -6 -6 -6 -5 -6 -6 -6 -7 -7 -7 -7 -7 -7 -7 -7 -7 -7 -7 -7 -7 -7 -7 -7 -7 -7 -7 -7 -6 -6 -6 -6 -5
1 0 -0 -0 -0 0 -0 -1 -0 -0 0 -0 -1 -3 -4 -6 -7 -7 -6 -6 -6 -6 -6 -6 -7 -7 -7 -7 -8 -8 -8 -7 -7 -7 -7 -7 -7 -7 -7 -7 -7 -7 -7 -7 -6 -6 -6 -6 -6
2 1 0 -0 0 1 0 -0 -0 -0 -0 -0 -1 -3 -5 -6 -7 -7 -7 -6 -6 -6 -6 -6 -7 -7 -7 -8 -8 -8 -8 -7 -7 -7 -7 -7 -7 -7 -7 -7 -8 -7 -7 -7 -7 -6 -6 -6 -6
2 2 1 1 1 1 1 -0 -1 -1 -1 -1 -2 -4 -6 -7 -7 -7 -6 -6 -6 -6 -6 -6 -6 -7 -7 -7 -8 -8 -8 -7 -7 -7 -7 -7 -7 -7 -7 -7 -8 -7 -7 -7 -7 -6 -6 -6 -5
2 2 2 2 2 1 1 0 -1 -1 -1 -1 -3 -5 -7 -8 -8 -7 -7 -6 -6 -6 -6 -6 -6 -6 -7 -7 -8 -8 -8 -7 -8 -8 -8 -7 -7 -7 -7 -7 -7 -7 -7 -7 -7 -7 -6 -6 -6
2 2 3 4 3 2 1 0 -1 -1 -1 -1 -3 -6 -8 -8 -8 -8 -8 -7 -7 -6 -6 -6 -6 -6 -6 -7 -7 -7 -7 -7 -8 -8 -7 -6 -6 -6 -6 -7 -7 -7 -7 -7 -7 -7 -6 -6 -6
2 2 3 4 4 3 2 1 0 -1 -1 -2 -4 -6 -8 -9 -9 -9 -8 -8 -7 -7 -6 -6 -6 -6 -6 -6 -6 -7 -7 -7 -7 -7 -6 -5 -4 -4 -5 -6 -7 -7 -7 -7 -7 -7 -6 -6 -6
2 2 3 4 3 3 2 1 1 -1 -2 -4 -5 -7 -8 -9 -9 -9 -9 -8 -8 -7 -7 -6 -6 -6 -6 -6 -6 -6 -6 -6 -6 -6 -6 -5 -4 -4 -5 -6 -6 -7 -7 -7 -7 -7 -6 -6 -6
3 3 3 3 3 3 2 1 0 -1 -3 -5 -6 -7 -7 -8 -8 -8 -8 -8 -8 -8 -7 -7 -7 -6 -6 -6 -6 -6 -6 -6 -6 -6 -6 -5 -5 -5 -5 -5 -6 -6 -6 -6 -6 -6 -6 -6 -6
3 3 3 3 3 3 2 1 -0 -2 -4 -5 -6 -7 -7 -7 -7 -7 -7 -8 -8 -8 -8 -8 -7 -7 -7 -7 -6 -6 -6 -6 -6 -6 -6 -6 -6 -6 -5 -5 -5 -5 -5 -5 -6 -6 -6 -6 -6
3 3 3 3 3 3 3 2 -0 -3 -4 -5 -6 -6 -6 -6 -6 -6 -6 -6 -7 -8 -8 -8 -7 -7 -7 -7 -7 -7 -6 -6 -6 -6 -6 -6 -6 -5 -5 -5 -5 -5 -4 -4 -5 -5 -6 -6 -6
3 3 3 3 4 4 3 2 -0 -3 -4 -5 -6 -6 -5 -5 -5 -4 -4 -5 -6 -6 -7 -7 -7 -7 -6 -7 -7 -6 -6 -6 -6 -5 -5 -5 -5 -5 -5 -5 -5 -5 -4 -4 -4 -5 -5 -5 -5
3 3 3 3 4 4 3 2 0 -2 -4 -4 -5 -5 -5 -4 -3 -2 -3 -3 -4 -4 -5 -5 -6 -6 -6 -6 -6 -6 -6 -6 -5 -5 -5 -4 -4 -4 -4 -4 -4 -4 -4 -4 -4 -4 -4 -4 -4
4 3 3 3 4 4 3 2 0 -1 -2 -3 -4 -4 -4 -3 -2 -1 -1 -2 -3 -3 -3 -4 -4 -5 -5 -6 -6 -6 -6 -5 -5 -4 -4 -3 -3 -3 -3 -3 -3 -3 -3 -3 -4 -4 -4 -4 -4
4 4 4 4 4 3 3 2 1 0 -0 -1 -2 -3 -3 -3 -2 -1 -1 -1 -2 -2 -2 -3 -3 -4 -4 -5 -5 -5 -5 -4 -3 -3 -2 -2 -2 -2 -2 -2 -3 -2 -2 -2 -3 -3 -3 -3 -3
4 4 4 4 3 3 2 2 2 2 1 1 -1 -2 -3 -3 -3 -2 -1 -1 -1 -1 -2 -2 -2 -3 -4 -5 -5 -4 -4 -3 -2 -1 -1 -1 -2 -2 -2 -2 -3 -3 -2 -1 -2 -2 -3 -3 -3
4 4 4 4 3 3 2 2 2 2 2 1 0 -1 -2 -3 -3 -2 -1 -1 -1 -1 -1 -2 -2 -3 -4 -4 -4 -4 -3 -2 -1 -1 -1 -1 -2 -2 -2 -2 -3 -3 -2 -1 -1 -1 -2 -3 -3
4 4 3 3 2 2 2 2 2 2 2 1 1 -0 -2 -3 -3 -2 -2 -2 -1 -1 -1 -2 -3 -4 -4 -4 -3 -3 -2 -1 -1 -1 -1 -1 -1 -2 -2 -2 -2 -2 -2 -2 -1 -1 -2 -3 -3
4 3 2 2 1 1 2 2 2 2 1 1 0 -0 -1 -2 -2 -3 -3 -3 -2 -2 -1 -1 -3 -4 -4 -3 -3 -2 -2 -1 -1 -1 -1 -1 -1 -2 -2 -2 -2 -2 -2 -2 -2 -2 -3 -3 -3
3 3 2 1 1 1 2 2 2 1 0 -1 -1 -1 -1 -2 -3 -3 -3 -3 -3 -3 -2 -2 -3 -4 -4 -3 -2 -2 -1 -1 -1 -1 -1 -1 -1 -1 -2 -2 -2 -2 -2 -2 -2 -2 -3 -3 -3
3 3 3 2 1 1 1 2 2 1 -1 -2 -2 -2 -2 -3 -4 -4 -4 -3 -3 -3 -3 -3 -4 -4 -3 -2 -2 -1 -1 -1 -1 -1 -1 -1 -1 -1 -1 -2 -2 -2 -2 -2 -2 -2 -3 -3 -3
3 3 3 2 1 1 1 1 1 1 -1 -2 -2 -3 -3 -3 -4 -5 -5 -4 -4 -4 -4 -4 -4 -4 -3 -2 -1 -1 -1 -1 -1 -1 -1 -1 -1 -0 -0 -1 -2 -2 -2 -2 -2 -2 -3 -3 -3
3 3 2 2 1 0 1 1 1 1 -0 -2 -3 -3 -3 -3 -4 -6 -6 -6 -5 -5 -5 -4 -4 -3 -3 -2 -1 -1 -1 -1 -1 -1 -1 -0 0 0 0 -0 -1 -1 -2 -2 -2 -2 -2 -2 -2
3 3 2 2 1 1 1 1 1 1 -0 -2 -4 -4 -3 -2 -3 -5 -6 -6 -6 -6 -5 -4 -3 -3 -3 -2 -2 -1 -1 -1 -1 -1 -1 -0 1 1 0 -0 -1 -1 -1 -1 -2 -2 -2 -2 -2